Total_Precipitation_Accumulation
0.97 0.96 0.93 0.87 0.85 0.88 0.96 1.12 1.32 1.26 0.99 0.79 0.75 0.75 0.77 0.76 0.78 0.71 0.62 0.76 0.84 0.85 0.90 0.94 0.91 0.89 0.91 1.00 1.19 1.38 1.52 1.54 1.54 1.62 1.71 1.73 1.83 2.00
0.90 0.90 0.87 0.84 0.85 0.88 0.95 1.03 1.15 1.26 1.14 0.83 0.70 0.68 0.72 0.75 0.81 0.71 0.64 0.75 0.76 0.78 0.78 0.80 0.82 0.86 0.90 0.95 1.05 1.19 1.39 1.51 1.53 1.55 1.63 1.69 1.78 1.90
0.84 0.82 0.81 0.80 0.83 0.84 0.90 0.95 1.00 1.08 1.09 0.86 0.72 0.69 0.71 0.71 0.73 0.71 0.66 0.63 0.60 0.68 0.69 0.69 0.71 0.78 0.87 0.93 0.97 1.06 1.21 1.33 1.45 1.49 1.57 1.66 1.73 1.76
0.83 0.85 0.85 0.86 0.89 0.92 0.95 0.95 0.94 0.94 0.97 0.90 0.74 0.66 0.62 0.60 0.59 0.61 0.62 0.60 0.56 0.64 0.66 0.65 0.67 0.71 0.80 0.85 0.87 0.94 1.02 1.10 1.20 1.29 1.34 1.42 1.51 1.61
0.77 0.83 0.87 0.92 0.97 0.96 0.96 0.94 0.90 0.87 0.87 0.88 0.77 0.64 0.58 0.55 0.58 0.60 0.61 0.60 0.55 0.60 0.63 0.63 0.65 0.68 0.72 0.79 0.83 0.84 0.86 0.90 0.96 1.05 1.14 1.21 1.30 1.39
0.80 0.82 0.85 0.87 0.87 0.87 0.84 0.82 0.83 0.84 0.85 0.87 0.84 0.73 0.63 0.58 0.62 0.69 0.67 0.59 0.56 0.50 0.54 0.54 0.55 0.57 0.59 0.64 0.70 0.74 0.76 0.83 0.92 1.01 1.12 1.16 1.18 1.29
0.87 0.86 0.83 0.80 0.75 0.73 0.74 0.73 0.73 0.79 0.87 0.91 0.86 0.76 0.66 0.63 0.63 0.62 0.67 0.63 0.58 0.51 0.48 0.47 0.47 0.45 0.46 0.51 0.59 0.70 0.80 0.92 1.07 1.16 1.28 1.38 1.44 1.48
0.77 0.74 0.72 0.72 0.70 0.72 0.73 0.72 0.77 0.86 0.96 0.95 0.84 0.69 0.55 0.51 0.56 0.66 0.75 0.80 0.71 0.51 0.49 0.51 0.51 0.52 0.49 0.52 0.64 0.74 0.85 0.98 1.14 1.22 1.29 1.35 1.42 1.52
0.69 0.64 0.60 0.56 0.57 0.54 0.61 0.68 0.70 0.75 0.80 0.80 0.74 0.61 0.55 0.54 0.69 0.85 0.85 0.80 0.64 0.47 0.50 0.57 0.54 0.58 0.57 0.61 0.72 0.76 0.87 0.99 1.13 1.21 1.29 1.34 1.38 1.46
0.53 0.50 0.46 0.45 0.46 0.50 0.56 0.64 0.57 0.54 0.54 0.52 0.54 0.58 0.59 0.58 0.68 0.82 0.82 0.79 0.66 0.57 0.56 0.65 0.58 0.59 0.58 0.63 0.74 0.74 0.80 0.93 1.07 1.19 1.27 1.30 1.34 1.42
0.42 0.43 0.45 0.42 0.48 0.61 0.64 0.62 0.50 0.42 0.44 0.51 0.56 0.55 0.57 0.56 0.59 0.79 0.95 1.01 0.85 0.64 0.56 0.59 0.54 0.55 0.61 0.66 0.73 0.80 0.81 0.89 1.02 1.13 1.17 1.24 1.32 1.39
0.39 0.42 0.46 0.45 0.53 0.64 0.59 0.56 0.48 0.41 0.42 0.41 0.40 0.40 0.39 0.43 0.53 0.67 1.03 1.32 1.05 0.75 0.51 0.63 0.65 0.71 0.90 0.69 0.69 0.75 0.79 0.89 0.99 1.04 1.07 1.14 1.20 1.20
0.40 0.38 0.41 0.55 0.62 0.61 0.54 0.44 0.47 0.52 0.44 0.36 0.34 0.34 0.34 0.36 0.39 0.44 0.67 1.24 1.44 0.98 0.51 0.92 1.08 0.81 0.97 0.77 0.68 0.75 0.86 1.01 1.09 1.10 1.10 1.10 1.11 1.14
0.36 0.33 0.40 0.57 0.57 0.50 0.44 0.46 0.55 0.51 0.41 0.40 0.39 0.38 0.36 0.34 0.35 0.37 0.43 0.60 0.91 1.01 0.70 1.08 1.51 1.11 1.17 0.98 0.80 0.83 0.90 1.11 1.37 1.43 1.37 1.32 1.21 1.16
0.43 0.49 0.53 0.50 0.43 0.40 0.41 0.44 0.45 0.42 0.47 0.54 0.49 0.41 0.36 0.35 0.38 0.42 0.44 0.49 0.56 0.61 0.67 0.83 1.19 1.24 1.37 1.33 1.06 0.92 1.04 1.19 1.50 1.78 1.69 1.46 1.24 1.13
0.52 0.54 0.47 0.40 0.36 0.36 0.39 0.40 0.39 0.40 0.50 0.58 0.53 0.43 0.38 0.41 0.46 0.54 0.65 0.67 0.74 0.67 0.66 0.73 0.90 1.22 1.32 1.12 1.19 1.14 1.18 1.53 1.74 1.93 1.81 1.54 1.30 1.12
0.57 0.43 0.35 0.33 0.34 0.33 0.32 0.33 0.36 0.40 0.45 0.47 0.51 0.51 0.45 0.45 0.47 0.58 0.77 0.88 0.92 0.80 0.72 0.67 0.69 0.81 0.99 1.08 1.14 1.09 1.21 1.45 1.68 1.84 1.65 1.48 1.41 1.28
0.48 0.39 0.37 0.34 0.33 0.32 0.30 0.32 0.32 0.36 0.43 0.52 0.54 0.55 0.57 0.56 0.56 0.59 0.78 0.94 0.95 0.84 0.78 0.70 0.68 0.73 0.75 0.80 1.03 1.23 1.29 1.46 1.56 1.51 1.23 1.22 1.33 1.24
0.38 0.38 0.39 0.39 0.38 0.36 0.37 0.38 0.38 0.36 0.46 0.59 0.65 0.66 0.67 0.63 0.65 0.70 0.78 0.85 0.83 0.75 0.64 0.58 0.68 0.94 0.95 0.73 0.67 0.99 1.34 1.41 1.27 1.18 1.04 1.06 1.28 1.23
0.30 0.35 0.37 0.39 0.41 0.44 0.47 0.49 0.49 0.48 0.52 0.61 0.66 0.69 0.76 0.79 0.77 0.76 0.80 0.84 0.79 0.62 0.46 0.38 0.50 0.88 1.25 1.11 0.89 0.89 1.02 1.20 1.23 1.23 1.05 0.94 1.03 1.04
0.30 0.31 0.33 0.36 0.42 0.47 0.51 0.53 0.57 0.62 0.66 0.75 0.76 0.77 0.83 0.90 0.84 0.77 0.75 0.68 0.61 0.53 0.45 0.35 0.36 0.56 0.85 0.92 0.79 0.70 0.83 0.93 1.06 1.35 1.30 1.14 0.97 0.85
0.31 0.32 0.32 0.35 0.42 0.47 0.50 0.54 0.59 0.61 0.68 0.76 0.79 0.82 0.87 0.94 0.90 0.75 0.64 0.60 0.54 0.50 0.46 0.36 0.32 0.40 0.58 0.79 0.71 0.57 0.61 0.64 0.64 0.67 0.89 1.21 1.54 1.63
0.35 0.35 0.34 0.37 0.43 0.48 0.52 0.53 0.58 0.61 0.69 0.81 0.85 0.83 0.83 0.78 0.67 0.64 0.60 0.60 0.60 0.54 0.49 0.44 0.39 0.41 0.48 0.56 0.60 0.52 0.47 0.47 0.45 0.50 0.68 0.72 0.85 1.11